User: anonymous   Login
Location: Bandys
(35.4750°N, 81.0830°W)
Time: 12:34:12
(UTC-04:00)
Language:

DELTA 2 R/B (1) - Orbit

View from above orbital plane
View from above orbital plane
View from above satellite
View from above satellite

Ground track
Ground track

The orbit data is extracted from the following two-line orbital elements,

1 27665U 03005C   18109.92815865 +.00000044 +00000-0 +51155-4 0  9996
2 27665 039.5771 348.3624 0007474 109.9847 325.2145 14.28472774794716
Epoch (UTC): 19 April 2018 22:16:32
Eccentricity: 0.0007474
inclination: 39.5771°
perigee height: 791 km
apogee height: 802 km
right ascension of ascending node: 348.3624°
argument of perigee: 109.9847°
revolutions per day: 14.28472774
mean anomaly at epoch: 325.2145°
orbit number at epoch: 79471

The dashed part of the orbit path shows where the satellite is in the earth's shadow,  

DLR